Weather History for Dayton, OH

Change the Weather History Date:

Monday, April 8, 2013

  Actual Average Record
Temperature  
Mean Temperature 63 °F 49 °F  
Max Temperature 72 °F 59 °F 83 °F (2001)
Min Temperature 54 °F 39 °F 15 °F (1972)
Degree Days  
Heating Degree Days 2 16  
Month to date heating degree days 151 140  
Since 1 July heating degree days 5113 5179  
Cooling Degree Days 0 0  
Month to date cooling degree days 0 0  
Year to date cooling degree days 0 0  
Growing Degree Days 12 (Base 50)    
Moisture  
Dew Point 51 °F    
Average Humidity 73    
Maximum Humidity 93    
Minimum Humidity 53    
Precipitation  
Precipitation 0.00 in 0.13 in 0.95 in (1921)
Month to date precipitation T 1.02  
Year to date precipitation 7.55 9.31  
Snow  
Snow 0.00 in 0.00 in 4.70 in (1974)
Month to date snowfall 0.0 0.3  
Since 1 July snowfall 35.9 23.0  
Snow Depth 0.00 in    
Sea Level Pressure  
Sea Level Pressure 29.93 in    
Wind  
Wind Speed 12 mph (SSW)    
Max Wind Speed 29 mph    
Max Gust Speed 37 mph    
Visibility 10 miles    
Events      
T = Trace of Precipitation, MM = Missing Value Source: NWS Daily Summary

Daily Weather History Graph

Daily Weather History Graph

Search for Another Location

Airport:

Trip Planner

Search our weather history database for the weather conditions in past years. The results will help you decide how hot, cold, wet, or windy it might be!

Date:

Astronomy

Apr. 08, 2013 Rise Set
Actual Time 7:09 AM EDT 8:08 PM EDT
Civil Twilight 6:41 AM EDT 8:36 PM EDT
Nautical Twilight 6:09 AM EDT 9:09 PM EDT
Astronomical Twilight 5:35 AM EDT 9:43 PM EDT
Moon 5:59 AM EDT (4/8) 6:41 PM EDT (4/8)
Length of Visible Light 13h 54m
Length of Day
12h 58m
Waning Crescent, 3% of the Moon is Illuminated
Apr 8
Waning Crescent
Apr 10
New
Apr 18
First Quarter
Apr 25
Full
May 2
Last Quarter

Hourly Weather History & Observations

Time (EDT) Temp. Dew Point Humidity Pressure Visibility Wind Dir Wind Speed Gust Speed Precip Events Conditions
12:56 AM 61.0 °F 48.0 °F 62% 29.99 in 10.0 mi South 6.9 mph - N/A   Overcast
1:56 AM 59.0 °F 50.0 °F 72% 29.99 in 10.0 mi South 5.8 mph - N/A   Mostly Cloudy
2:56 AM 57.0 °F 51.1 °F 81% 29.96 in 10.0 mi South 4.6 mph - N/A   Overcast
3:56 AM 55.0 °F 50.0 °F 83% 29.96 in 10.0 mi South 4.6 mph - N/A   Overcast
4:56 AM 55.0 °F 50.0 °F 83% 29.94 in 10.0 mi South 6.9 mph - N/A   Overcast
5:56 AM 55.9 °F 50.0 °F 80% 29.93 in 10.0 mi South 6.9 mph - N/A   Overcast
6:56 AM 54.0 °F 51.1 °F 90% 29.94 in 10.0 mi SSE 8.1 mph - N/A   Mostly Cloudy
7:56 AM 55.9 °F 50.0 °F 80% 29.95 in 10.0 mi South 9.2 mph - N/A   Overcast
8:56 AM 57.9 °F 48.0 °F 70% 29.96 in 10.0 mi South 11.5 mph - N/A   Overcast
9:56 AM 61.0 °F 46.9 °F 60% 29.94 in 10.0 mi South 12.7 mph - N/A   Overcast
10:56 AM 63.0 °F 48.0 °F 58% 29.91 in 10.0 mi South 13.8 mph 24.2 mph N/A   Overcast
11:56 AM 64.9 °F 48.9 °F 56% 29.90 in 10.0 mi South 15.0 mph 26.5 mph N/A   Overcast
12:56 PM 64.9 °F 50.0 °F 58% 29.90 in 10.0 mi SSW 13.8 mph 25.3 mph N/A   Overcast
1:56 PM 68.0 °F 51.1 °F 55% 29.88 in 10.0 mi SSW 23.0 mph 31.1 mph N/A   Overcast
2:56 PM 69.1 °F 52.0 °F 54% 29.87 in 10.0 mi SSW 20.7 mph 31.1 mph N/A   Overcast
3:56 PM 70.0 °F 53.1 °F 55% 29.87 in 10.0 mi SW 24.2 mph 29.9 mph N/A   Overcast
4:56 PM 70.0 °F 53.1 °F 55% 29.87 in 10.0 mi SW 18.4 mph - N/A   Overcast
5:56 PM 71.1 °F 53.1 °F 53% 29.88 in 10.0 mi SW 15.0 mph 23.0 mph N/A   Overcast
6:56 PM 70.0 °F 53.1 °F 55% 29.90 in 10.0 mi SW 19.6 mph - N/A   Overcast
7:56 PM 68.0 °F 52.0 °F 56% 29.92 in 10.0 mi SW 16.1 mph - N/A   Overcast
8:56 PM 66.0 °F 53.1 °F 63% 29.93 in 10.0 mi SSW 11.5 mph - N/A   Mostly Cloudy
9:56 PM 64.0 °F 53.1 °F 67% 29.95 in 10.0 mi SSW 10.4 mph - N/A   Mostly Cloudy
10:56 PM 63.0 °F 53.1 °F 70% 29.99 in 10.0 mi SW 9.2 mph - N/A   Mostly Cloudy
11:56 PM 63.0 °F 53.1 °F 70% 29.99 in 10.0 mi SSW 9.2 mph - N/A   Overcast